Preview of NWS' New Version of Forecast
This preview is not operational and should not be used for support decisions.

Terminal Aerodrome Forecast (TAF)

Issued by National Weather Service (NWS)

                            
000
FTUS42 KKEY 220520
TAFEYW
TAF
KEYW 220520Z 2206/2306 11009KT P6SM FEW020=